User: anonymous   Login
Location: Unspecified
(0.0000°N, 0.0000°E)
Time: 09:19:15
(UTC+00:00)
Language:

Kosmos-2195 - Orbit

View from above orbital plane
View from above orbital plane
View from above satellite
View from above satellite

Ground track
Ground track

The orbit data is extracted from the following two-line orbital elements,

1 22006U 92036A   17086.96180028 +.00000008 +00000-0 -68371-5 0  9995
2 22006 082.9365 036.2097 0036060 310.5084 114.0101 13.74909179241261
Epoch (UTC): 27 March 2017 23:04:59
Eccentricity: 0.0036060
inclination: 82.9365°
perigee height: 955 km
apogee height: 1008 km
right ascension of ascending node: 36.2097°
argument of perigee: 310.5084°
revolutions per day: 13.74909179
mean anomaly at epoch: 114.0101°
orbit number at epoch: 24126

The dashed part of the orbit path shows where the satellite is in the earth's shadow,  

DLR